Theta_e
305 303 301 305 306 311 309 305 304 310 326 322 320 320 323 323 322 322 323 323 324 325 329 332 338 340 341 343 343 345 345 344 346 345 344 344 343 344 346 346 349 347 348 350
299 295 302 306 305 304 306 302 300 305 311 321 320 318 326 323 321 321 323 322 323 325 325 330 336 339 341 341 341 343 344 342 346 348 345 347 346 346 348 347 347 348 349 350
292 299 302 300 298 298 294 298 301 302 307 322 319 316 322 325 323 323 323 324 323 325 325 329 333 337 340 339 340 341 342 342 345 346 347 346 348 346 344 344 345 347 349 351
291 297 298 296 295 295 288 299 299 298 301 302 317 302 313 322 320 320 321 322 322 324 327 330 331 336 338 339 341 342 342 341 344 346 346 346 343 342 345 345 346 346 350 350
292 293 293 293 295 297 294 300 297 296 293 301 305 301 305 320 319 317 321 322 323 324 327 329 331 336 339 340 340 343 342 342 343 346 347 346 343 345 345 345 346 346 349 350
293 297 295 294 298 297 299 295 294 293 295 293 300 302 302 311 320 323 321 323 323 325 327 329 332 336 337 340 340 345 343 342 343 345 345 346 344 343 342 343 345 346 348 350
294 295 298 300 296 298 295 287 283 284 287 291 299 299 307 310 317 324 327 323 323 326 326 328 330 334 336 337 339 344 343 342 343 347 347 346 345 344 344 344 347 345 346 346
288 288 297 301 296 294 291 288 283 280 282 285 292 290 302 313 317 325 330 328 326 325 326 327 328 334 336 337 339 343 343 342 343 345 348 349 348 346 345 345 348 347 349 350
288 289 300 300 300 297 293 286 290 285 283 283 287 293 302 308 312 320 327 330 327 325 327 326 328 332 335 337 338 342 343 343 342 343 345 347 348 348 347 346 347 348 348 349
292 286 293 299 299 298 294 296 286 284 281 280 285 290 293 302 306 313 318 328 328 328 328 327 327 330 335 338 340 343 344 343 343 343 344 347 348 351 351 349 346 346 347 346
292 288 290 294 291 291 291 290 288 287 284 281 281 285 299 301 306 309 321 328 329 330 328 329 328 329 334 338 340 342 344 343 343 344 344 345 349 351 351 352 349 347 347 348
292 286 283 289 295 296 294 290 288 285 285 286 285 288 304 313 322 320 324 329 331 332 330 330 331 330 332 336 339 342 344 345 345 345 345 344 348 352 352 350 352 352 349 350
294 286 281 284 288 293 291 292 290 290 286 285 283 287 303 307 324 327 327 329 331 333 333 332 331 330 331 335 338 341 343 345 346 346 345 344 346 349 350 352 350 351 350 350
298 285 284 282 286 289 290 294 294 290 285 287 288 293 297 300 321 325 326 328 330 333 334 333 332 331 333 335 338 341 342 345 346 346 345 344 344 347 349 351 352 351 351 350
290 284 286 288 291 292 292 293 294 291 293 290 296 298 306 308 315 324 327 329 328 329 329 329 331 332 332 334 338 341 344 345 346 346 346 345 345 346 349 348 349 351 350 352
288 284 284 285 290 292 289 292 293 294 302 302 304 303 313 317 320 320 324 327 325 327 328 328 330 333 334 334 335 339 343 345 347 346 346 346 346 347 347 348 348 347 348 349
287 286 282 281 287 288 285 288 297 300 306 305 300 307 315 316 314 316 319 323 324 326 327 328 331 332 332 334 338 334 340 347 347 346 346 347 346 347 348 349 347 347 346 345
286 283 282 282 283 278 289 295 295 301 306 308 309 312 317 316 318 320 321 320 319 322 324 327 329 331 332 335 339 341 341 343 345 346 346 347 347 347 349 349 349 347 347 346
289 285 283 281 279 286 291 293 298 299 299 310 311 313 317 320 318 318 322 325 324 325 327 328 331 330 333 334 338 341 341 341 342 343 343 345 346 348 345 342 342 344 342 342
290 289 286 280 279 279 288 304 307 305 294 311 314 313 315 316 306 313 323 325 326 327 328 328 330 331 332 333 336 338 337 334 332 334 340 343 341 340 337 338 339 343 343 341
285 285 284 283 282 285 296 303 307 291 293 312 314 315 315 313 316 321 324 324 326 326 327 328 329 327 328 331 332 334 334 334 337 338 338 338 340 341 339 340 340 342 338 336
285 283 282 283 281 281 302 301 296 301 307 313 311 315 313 316 320 322 323 323 324 324 325 326 324 324 325 326 327 325 330 336 337 338 340 339 342 343 341 339 338 339 341 335
286 290 288 289 288 296 300 301 304 309 309 309 310 314 316 317 317 320 321 322 321 320 319 321 322 322 322 322 323 322 325 333 335 336 336 337 338 339 340 337 337 337 337 331
293 297 293 291 294 296 299 301 302 306 307 309 312 317 317 316 317 316 318 318 318 318 317 319 317 316 316 320 321 321 322 330 324 322 320 327 334 336 338 341 340 337 334 333
297 298 295 293 295 296 298 299 303 307 310 311 315 317 316 314 317 317 318 317 317 317 316 316 315 313 313 315 316 317 319 321 318 317 318 321 332 330 325 323 327 328 322 324
299 298 294 291 295 294 295 300 305 307 309 312 314 315 316 318 317 316 314 314 313 312 313 313 313 311 308 309 309 312 316 316 316 316 317 319 327 328 326 323 321 309 306 302
Wind_Speed
4 6 2 4 3 4 5 3 7 9 8 9 17 5 15 19 13 16 16 14 13 13 12 13 15 16 15 12 13 13 12 8 7 3 3 2 3 3 2 3 5 6 5 5
7 1 4 4 3 3 5 7 7 10 9 7 5 14 14 21 22 21 20 15 14 12 10 14 15 16 17 15 13 11 13 9 7 6 3 3 4 3 4 4 4 5 6 6
5 6 5 4 6 6 4 6 5 7 10 9 2 3 13 17 13 17 16 17 12 17 16 17 17 17 16 16 15 13 13 12 8 7 4 2 3 3 2 2 3 5 6 6
3 4 3 5 2 2 4 1 7 7 7 4 5 6 5 13 16 20 18 17 15 17 18 19 19 19 18 17 15 15 13 13 9 9 7 6 5 4 5 5 4 5 6 6
8 3 2 2 5 3 9 3 5 6 6 2 5 0 8 11 12 16 21 20 18 19 21 22 22 22 21 17 16 14 13 12 9 12 9 6 5 4 4 3 6 5 4 5
4 3 1 2 5 3 9 5 3 1 3 1 8 6 7 7 12 21 23 24 23 20 21 22 22 20 19 17 16 15 14 12 9 11 10 9 8 6 4 4 4 4 4 4
8 6 7 5 8 8 10 7 6 6 3 7 2 3 14 7 12 19 24 26 24 21 21 21 21 19 18 18 18 15 16 15 11 11 11 10 9 8 9 8 7 5 3 3
4 8 7 6 2 5 5 5 6 4 3 7 9 7 8 11 17 12 18 23 25 22 21 23 23 22 21 21 20 18 16 16 13 12 11 9 8 6 6 7 6 6 7 8
3 6 6 3 5 2 5 1 6 4 3 2 5 10 9 11 12 9 15 18 24 24 23 26 23 23 22 21 21 20 18 16 15 14 10 9 8 8 8 8 7 7 8 6
2 4 4 7 4 3 4 3 6 5 3 6 6 6 7 11 16 10 11 17 23 23 24 23 22 23 20 20 21 20 19 19 16 14 12 10 9 8 8 7 9 9 9 6
1 4 7 4 4 9 7 4 3 3 3 3 5 7 8 10 16 15 11 16 20 21 22 22 22 22 22 21 20 20 18 18 16 14 14 13 10 10 7 7 8 8 9 7
2 4 1 6 8 8 5 2 3 5 8 4 5 8 11 7 9 8 7 9 10 14 16 13 14 16 20 20 19 19 18 18 17 15 14 14 11 10 10 9 7 7 9 7
3 2 4 10 9 7 3 2 2 3 2 7 4 9 16 12 10 5 8 14 12 16 10 10 11 15 17 19 19 19 19 19 16 14 14 14 14 14 14 11 8 7 7 7
5 3 7 7 8 3 6 7 4 1 2 7 7 15 17 19 8 2 5 5 9 6 9 6 11 14 16 17 17 18 19 17 16 15 15 15 15 14 13 12 11 9 8 7
5 3 5 7 8 7 11 8 7 7 10 6 12 14 21 21 14 7 11 9 9 9 8 9 7 5 3 9 12 14 14 13 15 15 14 15 13 12 11 11 11 10 9 10
1 3 1 6 6 5 7 10 13 15 9 4 10 16 8 27 10 10 11 8 15 10 5 6 10 10 12 6 7 13 14 14 14 15 16 13 12 12 11 9 9 10 10 9
4 5 3 6 4 9 9 8 9 4 4 2 5 10 19 14 12 12 10 9 8 7 5 3 5 10 10 9 7 7 9 12 14 15 13 12 11 11 11 9 7 8 8 7
5 5 3 5 1 5 8 6 7 9 4 5 5 12 14 4 6 10 9 9 8 9 6 7 5 8 9 3 3 4 2 5 11 11 9 8 8 9 7 7 9 8 7 8
2 4 0 3 4 8 9 7 4 3 8 6 3 13 16 10 7 5 8 7 6 7 8 5 3 5 8 7 7 4 6 8 8 6 5 3 3 5 4 0 2 4 4 5
5 5 3 1 3 6 7 0 6 3 9 4 4 13 11 9 3 2 6 7 8 8 7 7 6 4 7 8 6 6 8 10 9 8 7 7 5 5 6 5 4 3 1 0
5 4 5 4 6 9 4 11 7 5 7 6 2 7 8 3 2 1 1 6 8 8 8 7 10 10 7 5 11 11 8 10 6 5 3 3 4 6 6 5 2 4 7 7
4 2 4 1 4 8 3 8 2 3 5 4 7 3 6 9 4 3 6 6 7 8 9 9 11 11 11 9 17 13 5 7 4 8 8 2 5 2 5 1 2 9 8 9
3 7 4 8 7 5 4 7 7 7 10 9 6 6 10 7 8 5 7 7 6 6 7 6 7 9 8 8 6 9 5 0 2 6 3 8 6 3 3 5 3 4 6 6
4 3 3 3 6 7 8 7 6 6 9 10 8 4 3 4 7 5 8 6 5 6 7 5 8 10 10 9 11 7 5 4 5 6 6 1 3 4 3 2 4 3 3 6
5 4 4 6 8 9 8 8 7 6 9 12 4 4 4 8 14 8 7 9 6 9 7 6 8 8 8 10 11 10 9 5 7 6 5 4 5 6 5 5 3 3 2 2
4 5 3 5 5 4 8 8 8 9 10 9 3 1 1 6 10 12 4 4 8 10 9 11 9 8 8 10 10 11 10 8 8 9 7 6 4 3 3 4 4 7 6 4
Wind_Direction
360 62 257 266 189 278 278 265 278 277 248 174 212 201 184 184 197 200 202 201 199 191 191 178 175 174 172 171 167 173 173 185 163 143 144 152 187 186 196 207 207 194 190 206
20 300 246 282 349 337 298 263 271 278 290 174 203 219 194 184 200 199 197 199 203 185 170 181 177 176 176 175 180 174 182 175 183 161 163 158 165 189 190 182 204 209 195 205
140 249 322 11 347 354 326 296 315 285 307 211 120 255 174 208 205 200 212 207 196 192 180 182 180 183 181 181 184 185 184 179 179 169 136 74 71 49 106 184 199 217 212 206
216 305 29 8 323 212 317 357 320 328 352 286 181 258 221 190 203 200 207 210 197 195 189 184 182 186 187 190 188 185 186 183 175 167 170 161 175 158 203 189 196 204 207 213
253 261 294 344 242 170 240 228 277 278 258 260 279 213 264 162 204 209 212 212 203 198 191 189 188 187 190 186 190 190 186 187 174 176 178 177 168 188 182 167 179 200 218 225
265 267 217 270 307 243 269 330 331 350 114 234 232 185 246 183 202 211 215 212 204 196 196 193 192 188 190 187 187 187 188 196 176 178 176 180 186 181 174 180 182 191 207 214
338 344 340 42 16 354 33 50 351 338 1 225 325 306 241 245 226 217 210 210 206 194 191 192 190 190 190 188 188 189 189 196 183 184 182 183 188 186 191 187 198 171 193 214
51 335 18 6 103 261 291 145 149 257 237 280 317 244 254 237 251 226 219 208 202 194 193 193 189 189 190 190 188 189 191 195 187 186 186 186 183 192 199 196 193 202 208 217
44 286 313 287 268 184 302 45 206 201 254 15 227 278 292 245 255 239 221 203 205 199 192 194 190 191 190 189 190 189 189 197 192 190 185 191 181 186 198 197 199 200 213 212
248 295 272 298 342 350 73 256 7 1 271 269 278 257 244 310 298 275 244 209 207 198 194 194 192 191 191 190 191 190 192 195 195 192 189 192 192 191 197 185 204 206 211 196
113 131 291 24 5 287 342 0 11 136 147 238 308 261 224 270 276 262 243 206 204 197 196 191 193 190 190 190 188 192 190 194 197 193 196 198 189 191 190 190 201 203 213 193
1 132 267 254 271 287 164 158 105 108 291 254 211 266 259 301 294 337 261 188 192 196 194 196 202 190 185 190 190 192 192 194 198 196 197 200 187 187 197 205 200 191 204 200
329 356 359 346 348 358 56 293 338 241 91 226 230 269 315 321 324 51 3 333 191 192 174 152 160 188 197 194 192 193 193 197 195 193 197 202 200 199 202 204 195 195 198 202
93 125 155 187 234 271 296 304 306 213 272 273 233 279 301 297 271 270 94 16 19 44 104 107 163 188 193 197 201 196 197 195 191 190 197 204 210 206 205 202 200 193 200 204
108 240 214 214 246 252 264 291 310 294 265 209 293 304 290 305 275 245 154 119 61 28 62 89 67 26 253 182 188 199 205 200 190 190 195 207 205 208 211 210 209 203 189 208
12 244 268 286 278 272 292 288 282 273 294 319 311 296 327 325 317 350 337 125 113 85 40 74 85 53 34 356 237 196 191 193 194 190 199 200 200 201 203 198 202 213 217 201
178 165 117 262 304 329 307 229 231 236 122 251 313 317 317 322 344 17 7 14 48 109 120 117 87 85 68 20 341 277 216 181 189 197 196 199 203 203 205 195 183 202 212 202
167 136 148 260 30 255 247 271 294 274 155 184 249 16 336 292 348 12 20 31 18 52 55 6 18 84 90 10 352 263 168 196 189 197 201 187 193 209 200 195 203 203 194 206
116 123 250 189 204 274 291 293 330 91 246 271 269 39 338 275 279 5 5 36 45 47 57 53 48 51 76 60 359 279 127 129 111 99 104 63 156 150 134 265 329 291 274 238
80 84 139 146 243 243 244 326 319 210 258 248 280 56 316 275 201 279 347 17 37 43 44 50 77 38 49 67 36 51 70 84 83 94 102 101 107 109 116 139 150 98 266 208
318 313 216 242 242 279 306 309 282 12 260 301 299 66 346 327 296 221 184 52 49 37 39 40 63 81 72 66 79 58 57 77 69 359 204 183 213 162 178 179 134 110 105 112
210 219 244 262 248 275 325 338 273 299 278 294 299 35 85 311 299 263 102 81 69 60 49 54 56 40 25 12 57 36 28 60 23 42 271 87 37 233 135 12 189 208 127 155
270 196 211 191 229 248 262 233 277 288 288 283 302 182 207 124 295 283 94 82 88 83 64 50 65 63 38 51 51 79 354 161 197 171 82 102 197 151 144 190 169 54 118 145
275 152 236 324 259 252 254 268 264 258 268 284 280 261 200 139 88 266 77 86 84 64 64 50 58 48 37 22 40 33 33 92 81 60 56 42 174 135 136 95 91 123 154 156
224 149 278 259 284 289 290 262 282 296 266 271 313 297 193 131 90 351 95 88 81 81 65 54 66 50 40 42 34 23 17 15 57 45 40 58 67 71 78 55 63 114 110 238
191 199 215 258 253 257 274 303 298 300 295 291 11 312 356 79 108 129 29 38 94 83 65 60 55 64 40 44 30 16 3 4 36 46 35 35 52 61 71 87 93 40 53 10